Flag for Canada Weather past 2 weeks in Rouyn-Noranda, Quebec, Canada

10 °F

Light snow. Passing clouds.

Feels Like: 1 °F
Forecast: 9 / 31 °F
Wind: 6 mph from Southwest

Location: Rouyn Airport

Current Time: Nov 30, 2015 at 5:19:29 AM

Latest Report: Nov 30, 2015 at 5:00 AM

Visibility: 15 mi

Pressure: 30.41 "Hg

Humidity: 92%

Dew point: 9 °F

Location of Rouyn-NorandaLocation

Historic Weather in Rouyn-Noranda — Graph


Rouyn-Noranda temperature yesterday

Maximum temperature yesterday: 23 °F (at 12:00 AM)
Minimum temperature yesterday: 1 °F (at 10:00 PM)
Average temperature yesterday: 16 °F

Past Weeks' High & Low Weather Summary

High55 °F (Nov 19, 8:55 AM)100% (Nov 21, 11:00 PM)30.53 "Hg (Nov 21, 11:00 PM)
Low1 °F (Nov 23, 6:00 AM)48% (Nov 17, 2:00 PM)29.51 "Hg (Nov 19, 2:00 PM)
Average27 °F81%30.17 "Hg
* Reported Nov 15 4:00 AM — Nov 30 4:00 AM, Rouyn-Noranda, Weather by CustomWeather, © 2015

Note: Actual official high and low records may vary slightly from our data, if they occured in-between our weather recording intervals... More about our weather records


Rouyn-Noranda weather history for previous 24 hours

Time TempWeatherWind HumidityBarometerVisibility
4:00 AM
Mon, Nov 30
9 °FMostly cloudy.5 mph92%30.42 "Hg15 mi
3:00 AM7 °FPassing clouds.8 mph85%30.45 "Hg15 mi
1:00 AM7 °FPassing clouds.8 mph85%30.45 "Hg15 mi
12:00 AM1 °FPassing clouds.3 mph78%30.48 "Hg15 mi
11:00 PM
Sun, Nov 29
3 °FPassing clouds.No wind92%30.50 "Hg15 mi
10:00 PM1 °FPassing clouds.No wind78%30.53 "Hg15 mi
9:00 PM3 °FPassing clouds.No wind85%30.53 "Hg15 mi
8:00 PM3 °FPassing clouds.3 mph85%30.53 "Hg15 mi
7:00 PM9 °FPassing clouds.No wind85%30.52 "Hg15 mi
6:00 PM10 °FPassing clouds.No wind85%30.53 "Hg15 mi
5:00 PM16 °FPartly cloudy.No wind93%30.50 "Hg15 mi
4:00 PM19 °FPartly sunny.No wind79%30.51 "Hg15 mi
3:00 PM19 °FSnow flurries. Partly sunny.No wind79%30.49 "Hg15 mi
2:00 PM21 °FSnow flurries. Partly sunny.No wind63%30.48 "Hg15 mi
1:00 PM21 °FPartly sunny.7 mph68%30.48 "Hg15 mi
12:49 PM21 °FPartly sunny.6 mph63%30.48 "Hg15 mi
12:00 PM19 °FPartly sunny.3 mph73%30.48 "Hg15 mi
11:00 AM19 °FPartly sunny.6 mph73%30.49 "Hg15 mi
10:00 AM18 °FLight snow. Partly sunny.6 mph86%30.47 "Hg15 mi
9:00 AM18 °FLight snow. Overcast.5 mph86%30.45 "Hg8 mi
8:00 AM18 °FLight snow. Overcast.3 mph86%30.43 "Hg12 mi
7:00 AM18 °FPassing clouds.6 mph86%30.41 "Hg15 mi
6:00 AM18 °FLight snow. Mostly cloudy.6 mph93%30.37 "Hg15 mi
5:00 AM19 °FLight snow. Mostly cloudy.6 mph93%30.34 "Hg15 mi
Weather by CustomWeather, © 2015

See weather overviewHow to use our weather pages